CW0621 Weather Reports


Display with metric or nautical units.
time (UTC)temp
F
wind
direction
speed
MPH
gust
MPH
rain 1hr
in
rain 24hr
in
rain mn
in
humidity
%
barometer
mb
20260904224531 81 221 0.0 0.0 0.00 0.01 0.01 74 1012.4
20260904223100 82 221 0.0 0.0 0.00 0.01 0.01 74 1012.2
20260904221525 82 231 0.0 0.0 0.00 0.01 0.01 72 1012.0
20260904220058 83 247 0.0 0.0 0.00 0.01 0.01 71 1012.0
20260904214522 84 222 0.0 0.0 0.00 0.01 0.01 71 1011.7
20260904213047 85 222 0.0 0.0 0.00 0.01 0.01 66 1011.7
20260904211516 85 151 0.0 2.0 0.00 0.01 0.01 68 1011.9
20260904210038 85 58 0.0 0.0 0.00 0.01 0.01 68 1011.8
20260904204502 85 224 0.0 2.0 0.00 0.01 0.01 68 1011.7
20260904203048 85 198 0.0 1.0 0.01 0.01 0.01 68 1012.1
20260904201506 85 104 0.0 1.0 0.01 0.01 0.01 69 1011.5
20260904200046 83 231 0.0 0.0 0.01 0.01 0.01 74 1011.9
20260904194552 81 32 0.0 0.0 0.01 0.01 0.01 81 1012.3
20260904193118 78 216 0.0 0.0 0.00 0.00 0.00 87 1012.2
20260904191548 75 101 0.0 0.0 0.00 0.00 0.00 93 1012.1
20260904190013 72 266 0.0 0.0 0.00 0.00 0.00 94 1012.2
20260904184542 71 45 0.0 0.0 0.00 0.00 0.00 93 1012.6
20260904183007 71 104 0.0 0.0 0.00 0.00 0.00 92 1013.4
20260904181536 72 104 0.0 0.0 0.00 0.00 0.00 91 1014.2
20260904180001 74 252 0.0 1.0 0.00 0.00 0.00 87 1015.0
20260904174530 78 84 0.0 2.0 0.00 0.00 0.00 77 1017.0
20260904173104 80 155 0.0 0.0 0.00 0.00 0.00 73 1015.4
20260904171523 80 111 0.0 0.0 0.00 0.00 0.00 74 1015.5
20260904170047 79 271 0.0 0.0 0.00 0.00 0.00 74 1015.4
20260904164510 78 262 0.0 1.0 0.00 0.00 0.00 77 1015.5
20260904163038 76 69 0.0 0.0 0.00 0.00 0.00 81 1015.5
20260904161501 74 253 0.0 1.0 0.00 0.00 0.00 84 1016.2
20260904160040 74 20 0.0 6.0 0.00 0.00 0.00 84 1016.6
20260904154554 72 40 1.0 9.0 0.00 0.00 0.00 89 1016.8
20260904153019 71 43 3.0 8.0 0.00 0.00 0.00 89 1017.1
20260904151551 72 37 4.0 11.0 0.00 0.00 0.00 89 1017.3
20260904150010 73 41 0.0 10.0 0.00 0.00 0.00 88 1016.6
20260904144535 74 20 1.0 6.0 0.00 0.00 0.00 87 1016.0
20260904143101 74 20 0.0 0.0 0.00 0.00 0.00 88 1015.1
20260904141522 73 42 0.0 0.0 0.00 0.00 0.00 89 1014.9
20260904140105 73 24 0.0 0.0 0.00 0.00 0.00 89 1014.6
20260904134517 72 41 0.0 2.0 0.00 0.00 0.00 90 1014.7
20260904133042 72 206 0.0 0.0 0.00 0.00 0.00 91 1014.3
20260904131505 71 219 0.0 0.0 0.00 0.00 0.00 91 1014.2
20260904130038 71 239 0.0 0.0 0.00 0.00 0.00 92 1013.9
20260904124613 71 250 0.0 0.0 0.00 0.00 0.00 93 1013.9
20260904123023 70 250 0.0 0.0 0.00 0.00 0.00 93 1013.7
20260904121553 70 243 0.0 0.0 0.00 0.00 0.00 94 1014.0
20260904120013 69 268 0.0 0.0 0.00 0.00 0.00 95 1014.4
20260904114542 68 313 0.0 0.0 0.00 0.00 0.00 96 1014.6
20260904113005 68 8 0.0 1.0 0.00 0.00 0.00 96 1014.4
20260904111534 68 279 0.0 0.0 0.00 0.00 0.00 96 1013.9
20260904110059 67 279 0.0 0.0 0.00 0.00 0.00 96 1013.3
20260904104526 67 279 0.0 0.0 0.00 0.00 0.00 96 1013.2
20260904103053 67 279 0.0 0.0 0.00 0.00 0.00 96 1013.0
20260904101519 67 279 0.0 0.0 0.00 0.00 0.00 96 1012.8
20260904100100 67 279 0.0 0.0 0.00 0.00 0.00 95 1012.5
20260904094533 67 279 0.0 0.0 0.00 0.00 0.00 96 1012.2
20260904093044 67 279 0.0 0.0 0.00 0.00 0.00 95 1012.1
20260904091506 67 279 0.0 0.0 0.00 0.00 0.00 95 1012.2
20260904090043 68 279 0.0 0.0 0.00 0.00 0.00 95 1012.6
20260904084602 68 279 0.0 0.0 0.00 0.00 0.00 95 1012.9
20260904083044 68 279 0.0 0.0 0.00 0.00 0.00 95 1013.0
20260904081552 68 279 0.0 0.0 0.00 0.00 0.00 95 1012.7
20260904080016 68 279 0.0 0.0 0.00 0.00 0.00 95 1012.7
20260904074546 68 279 0.0 0.0 0.00 0.00 0.00 95 1012.6
20260904073009 67 276 0.0 0.0 0.00 0.00 0.00 95 1012.6
20260904071543 67 276 0.0 0.0 0.00 0.00 0.00 95 1012.9
20260904070004 67 276 0.0 0.0 0.00 0.00 0.00 95 1013.0
20260904064529 67 276 0.0 0.0 0.00 0.00 0.00 95 1013.4
20260904063106 67 276 0.0 0.0 0.00 0.00 0.00 95 1013.5
20260904061530 67 276 0.0 0.0 0.00 0.00 0.00 94 1013.6
20260904060055 67 276 0.0 0.0 0.00 0.00 0.00 94 1013.5
20260904054520 67 276 0.0 0.0 0.00 0.00 0.00 94 1013.6
20260904053057 67 276 0.0 0.0 0.00 0.00 0.00 94 1013.5
20260904051521 67 276 0.0 0.0 0.00 0.00 0.00 94 1013.5
20260904050038 67 276 0.0 0.0 0.00 0.00 0.00 93 1013.7
20260904044603 67 276 0.0 0.0 0.00 0.00 0.00 94 1013.7
20260904043034 67 276 0.0 0.0 0.00 0.00 0.00 93 1013.8
20260904041555 67 276 0.0 0.0 0.00 0.00 0.00 92 1013.9
20260904040018 68 276 0.0 0.0 0.00 0.00 0.00 92 1013.7
20260904034549 68 276 0.0 0.0 0.00 0.00 0.00 92 1013.6
20260904033010 68 276 0.0 0.0 0.00 0.00 0.00 91 1013.8
20260904031552 68 276 0.0 0.0 0.00 0.00 0.00 91 1013.9
20260904030002 68 276 0.0 0.0 0.00 0.00 0.00 90 1014.0
20260904024530 69 276 0.0 0.0 0.00 0.00 0.00 90 1014.0
20260904023055 69 276 0.0 0.0 0.00 0.00 0.00 88 1013.7
20260904021524 69 276 0.0 0.0 0.00 0.00 0.00 88 1013.4
20260904020050 70 276 0.0 0.0 0.00 0.00 0.00 86 1013.3
20260904014511 71 276 0.0 0.0 0.00 0.00 0.00 85 1013.3
20260904013044 72 276 0.0 0.0 0.00 0.00 0.00 83 1013.4
20260904011503 72 276 0.0 0.0 0.00 0.00 0.00 82 1013.4
20260904010030 72 276 0.0 0.0 0.00 0.00 0.00 81 1013.5
20260904004556 73 321 0.0 0.0 0.00 0.00 0.00 80 1013.6
20260904003019 74 321 0.0 0.0 0.00 0.00 0.00 79 1013.8
20260904001552 74 173 0.0 0.0 0.00 0.00 0.00 77 1013.5
20260904000022 75 289 0.0 0.0 0.00 0.00 0.00 77 1013.5
20260903234555 75 230 0.0 3.0 0.00 0.00 0.00 78 1013.4
20260903233026 76 212 0.0 0.0 0.00 0.00 0.00 78 1013.1
20260903231556 76 293 0.0 0.0 0.00 0.00 0.00 79 1013.1
20260903230032 76 262 0.0 0.0 0.00 0.00 0.00 78 1012.9